This demonstration page uses our WeatherBlox Daily Observations layout. Learn more.

Left ArrowRight Arrow

Hourly Observations for March 16, 2018

Temp ( °F °C ) Dew Point ( °F °C ) Humidity (%) Winds ( mph kmh ) Pressure ( in mb ) Visibility ( mi km ) Precip ( " mm )
12:59 am 00:59 Clear 40 4.4 30 -1.1 68 68 SSE 6 9 29.75 1008 10 16 0.00 0.00
1:59 am 01:59 Mostly Clear 37 2.8 29 -1.7 73 73 S 3 6 29.76 1008 10 16 0.00 0.00
2:59 am 02:59 Mostly Cloudy 36 2.2 30 -1.1 79 79 Calm 29.76 1008 10 16 0.00 0.00
3:59 am 03:59 Mostly Cloudy 40 4.4 31 -0.6 70 70 NNE 6 9 29.77 1008 10 16 0.00 0.00
4:59 am 04:59 Mostly Clear 41 5 33 0.6 73 73 NE 3 6 29.77 1008 10 16 0.00 0.00
5:59 am 05:59 Mostly Clear 40 4.4 33 0.6 77 77 NE 5 7 29.78 1009 10 16 0.00 0.00
6:59 am 06:59 Mostly Clear 40 4.4 32 0 73 73 NNE 6 9 29.81 1010 9 14 0.00 0.00
7:59 am 07:59 Sunny 42 5.6 33 0.6 71 71 NNE 6 9 29.84 1011 8 13 0.00 0.00
8:59 am 08:59 Sunny 46 7.8 31 -0.6 56 56 ENE 3 6 29.88 1012 9 14 0.00 0.00
9:59 am 09:59 Sunny 47 8.3 30 -1.1 52 52 NNE 12 19 29.90 1013 10 16 0.00 0.00
10:59 am 10:59 Sunny 46 7.8 27 -2.8 47 47 NNE 13 20 29.92 1013 10 16 0.00 0.00
11:59 am 11:59 Mostly Sunny 46 7.8 25 -3.9 44 44 NE 12 19 29.94 1014 10 16 0.00 0.00
12:59 pm 12:59 Mostly Sunny 48 8.9 26 -3.3 42 42 NE 9 15 29.94 1014 10 16 0.00 0.00
1:59 pm 13:59 Mostly Sunny 53 11.7 25 -3.9 34 34 NNW 10 17 29.94 1014 10 16 0.00 0.00
2:59 pm 14:59 Sunny 54 12.2 18 -7.8 24 24 NW 18 30 29.94 1014 10 16 0.00 0.00
3:59 pm 15:59 Sunny 54 12.2 19 -7.2 25 25 NNW 18 30 29.94 1014 10 16 0.00 0.00
4:59 pm 16:59 Mostly Sunny 53 11.7 21 -6.1 28 28 NNW 15 24 29.96 1014 10 16 0.00 0.00
5:59 pm 17:59 Mostly Sunny 49 9.4 24 -4.4 38 38 NNE 14 22 29.97 1015 10 16 0.00 0.00
6:59 pm 18:59 Mostly Sunny 46 7.8 26 -3.3 46 46 NE 9 15 30.00 1016 10 16 0.00 0.00
7:59 pm 19:59 Mostly Clear 44 6.7 28 -2.2 53 53 N 7 11 30.01 1016 10 16 0.00 0.00
8:59 pm 20:59 Mostly Clear 44 6.7 25 -3.9 47 47 N 8 13 30.04 1017 10 16 0.00 0.00
9:59 pm 21:59 Clear 43 6.1 21 -6.1 42 42 N 9 15 30.06 1018 10 16 0.00 0.00
10:59 pm 22:59 Clear 43 6.1 22 -5.6 43 43 N 10 17 30.07 1018 10 16 0.00 0.00
11:59 pm 23:59 Clear 42 5.6 21 -6.1 43 43 N 7 11 30.09 1019 10 16 0.00 0.00

Powered by AerisWeather